Regional Weather Roundup
Issued by NWS Wakefield, VA

Home | Current Version | Previous Version | Text Only | Print | Product List | Glossary Off
Versions: 1 2 3 4 5 6 7 8 9 10 11 12 13 14 15 16 17 18 19 20 21 22 23 24 25 26 27 28 29 30 31 32 33 34 35 36 37 38 39 40 41 42 43 44 45 46 47 48 49 50

000
ASUS41 KAKQ 201315
RWRAKQ

REGIONAL WEATHER ROUNDUP
NATIONAL WEATHER SERVICE WAKEFIELD VA
900 AM EDT FRI APR 20 2018

Note: "fair" indicates few or no clouds below 12,000 feet with no
significant weather and/or obstructions to visibility. * = Denotes
station may not report precipitation (e.g., rain,snow,etc.),
thunder or fog.

VAZ042-051-052>054-056-201400-
NORTHERN VIRGINIA

CITY           SKY/WX    TMP DP  RH WIND       PRES   REMARKS
WASH NATIONAL  FAIR      45  22  40 NW14G22   30.30R
DULLES         FAIR      42  22  44 NW13      30.30R
FORT BELVOIR   FAIR      44  20  39 NW14G23   30.30S
QUANTICO       FAIR      45  23  42 NW13      30.32S
FREDERICKSBRG* FAIR      44  23  43 NW10G23   30.32R
STAFFORD*      FAIR      44  24  45 NW15      30.36S
WARRENTON      FAIR      45  18  33 NW10      30.31R
CULPEPER*      FAIR      45  17  32 NW10G21   30.32S
MANASSAS*      FAIR      43  22  43 NW17      30.32R
LEESBURG*      FAIR      43  27  52 NW17G26   30.31R
WINCHESTER     FAIR      37  21  52 NW14G22   30.32R
FRONT ROYAL*   FAIR      41  19  42 NW8G20    30.29S
LURAY*         FAIR      43  19  39 NW14      30.31R
$$

VAZ048-049-060>072-079>083-201400-
CENTRAL AND SOUTH CENTRAL VIRGINIA

CITY           SKY/WX    TMP DP  RH WIND       PRES   REMARKS
RICHMOND       FAIR      46  19  34 N15G23    30.32R
CHESTERFIELD*  FAIR      46  20  35 NW14      30.33R
PETERSBURG*    FAIR      46  18  32 N10       30.34R
HANOVER        FAIR      46  20  35 NW9G16    30.34R
TAPPAHANNOCK*  FAIR      44  25  46 NW7       30.31S
QUINTON*       FAIR      43  22  43 NW15G22   30.31S
CHARLOTTSVILLE FAIR      46  17  31 N9G17     30.32S
GORDONSVILLE*  FAIR      43  19  38 N7        30.32R
ORANGE*        FAIR      43  19  39 NW13      30.32R
LOUISA*        FAIR      44  19  37 NW9       30.36R
BUMPASS*       FAIR      44  16  33 NW5G17    30.32R
FARMVILLE*     FAIR      46  16  29 N8        30.33S
CREWE*         FAIR      45  24  42 NW10      30.34R
FORT PICKETT*  FAIR      44  24  44 N10G20    30.34R
CHASE CITY*    FAIR      46  29  52 N8        30.34R
CLARKSVILLE*   FAIR      46  32  57 CALM      30.34R
SOUTH HILL*    FAIR      46  29  52 N13       30.39R
LAWRENCEVILLE* FAIR      44  24  44 N7        30.33R
EMPORIA*       FAIR      45  28  53 NW8       30.35R
$$

VAZ088>098-201400-
SOUTHEAST VIRGINIA

CITY           SKY/WX    TMP DP  RH WIND       PRES   REMARKS
NORFOLK        FAIR      46  24  42 NW10G23   30.29R
VIRGINIA BEACH FAIR      47  29  49 NW20G26   30.28R
NORFOLK NAVAL  FAIR      47  25  42 N16       30.31R
WEST POINT*    FAIR      44  21  40 NW10G18   30.33R
SALUDA*        FAIR      44  28  53 NW13G20   30.29S
NEWPORT NEWS   FAIR      46  24  42 NW16G26   30.30R
LANGLEY AFB    FAIR      46  24  41 NW12      30.29S
FORT EUSTIS    FAIR      46  23  41 N9G17     30.28R
WILLIAMSBURG*  FAIR      45  21  39 N13G22    30.31S
HR EXEC AP*    FAIR      47  25  42 N8        30.31R
FRANKLIN*      FAIR      45  26  47 N8        30.33R
US460-WAKEFLD  FAIR      46  23  40 N9G18     30.32R
$$

VAZ020-022-025-037-045-201400-
WEST CENTRAL AND SOUTHWEST VIRGINIA

CITY           SKY/WX    TMP DP  RH WIND       PRES   REMARKS
STAUNTON*      FAIR      39  17  40 NW7       30.35R
WAYNESBORO*    FAIR      40  17  39 NW8       30.32R
HOT SPRINGS VA FAIR      31   9  39 NW9       30.25S
LYNCHBURG      FAIR      46  20  35 N7        30.33R
DANVILLE       FAIR      49  31  49 N8        30.35R
SOUTH BOSTON*  FAIR      48  28  45 N8        30.34R
MARTINSVILLE   FAIR      46  27  47 N5        30.38R
ROANOKE        FAIR      46  21  37 N15G21    30.36R
BLACKSBURG     FAIR      42  22  45 NW7       30.35S
DUBLIN*        FAIR      42  20  42 NW13G18   30.35S
MARION*        FAIR      40  29  64 NW3       30.36S
HILLSVILLE*    FAIR      38  25  60 N12       30.30S
RICHLANDS*     FAIR      36   8  31 CALM      30.35S
WISE*          FAIR      37  32  81 NE6       30.37R
ABINGDON*      FAIR      41  33  73 SW3       30.37R
$$

MDZ021>025-VAZ099-100-201400-
SOUTHERN MARYLAND AND THE DELMARVA PENINSULA

CITY           SKY/WX    TMP DP  RH WIND       PRES   REMARKS
PATUXENT RIVER FAIR      46  24  42 NW21      30.28R
BAY BRIDGE APT FAIR      43  25  49 NW15G23   30.28R
LEONARDTOWN    FAIR      43  23  45 NW10G17   30.29F
DOVER          FAIR      42  24  49 NW14G21   30.23S
GEORGETOWN     FAIR      43  23  45 NW13      30.24S
EASTON         MOSUNNY   45  23  42 NW12G21   30.30S
CAMBRIDGE        N/A    N/A N/A N/A MISG        N/A
SALISBURY      FAIR      44  24  45 NW17G24   30.25R
TANGIER        FAIR      45  30  57 NW23G30   30.28R
OCEAN CITY     FAIR      43  25  49 NW15G22   30.24R
WALLOPS ISLAND FAIR      45  26  47 NW14      30.26R
ACCOMACK*      FAIR      45  29  53 NW20      30.27R
$$

NCZ012>017-030>032-201400-
NORTH CENTRAL AND EASTERN NORTH CAROLINA

CITY           SKY/WX    TMP DP  RH WIND       PRES   REMARKS
ROANOKE RAPIDS FAIR      46  32  57 N7        30.34R
RALEIGH        FAIR      48  32  53 VRB5      30.35R
ELIZABETH CITY FAIR      49  32  52 NW12      30.30R
AHOSKIE*       FAIR      46  29  52 N13       30.34R
EDENTON*       FAIR      50  33  52 N12G17    30.32R
CURRITUCK*     NOT AVBL
KILL DEVIL HLS FAIR      48  27  44 NW9G16    30.28R
MANTEO         FAIR      49  28  45 N12G17    30.29S
CAPE HATTERAS  FAIR      52  30  43 VRB7G21   30.28R
TARBORO*       NOT AVBL
GOLDSBORO      FAIR      51  31  46 NW6       30.32S
WASHINGTON     FAIR      49  31  50 CALM      30.33S
GREENVILLE     FAIR      50  32  50 N7        30.33S
NEW BERN       FAIR      50  32  50 N10       30.34R
WILMINGTON     FAIR      51  31  46 NE9       30.34R
$$

VAZ048-201400-
ELSEWHERE

CITY           SKY/WX    TMP DP  RH WIND       PRES   REMARKS
HARRISBURG PA  PTSUNNY   40  23  50 NW10      30.25R
BALTIMORE      FAIR      42  23  46 NW10      30.26S
ANNAPOLIS      FAIR      45  27  49 NW13G22   30.27S
ANDREWS AFB    FAIR      42  21  42 NW18      30.27S
PHILADELPHIA   FAIR      40  21  46 N22G29    30.23S
HENDERSON NC   FAIR      45  29  55 NW5       30.33R
GREENSBORO     FAIR      47  30  51 N7        30.34R
ROCKY MOUNT    FAIR      49  33  54 NW9       30.34R
$$

VAZ100-201400-
MARINE

STATION/POSITION TIME  TEMP    WIND        PRES    WAVE   SWELL
                       AIR SEA DIR/SP/G            HT/PER HT/PER
                 (UTC) (F)     (DEG/KT/KT) (MB)    (FT/S) (FT/S)
BRANDYWINE LGT   1242   40     330/ 12/ 19 1023.9R
CAPE MAY NJ      1236   43 47  190/  2/ 11 1022.9R
LEWES DE         1242   41 47  320/ 17/ 21 1023.6R
15NM E FENWICK I 1250   40 45  310/ 21/ 27 1023.2R   5/ 5   2/14
OCEAN-CITY-INLET 1242   42 49  350/ 17/ 23 1024.3R
WACHAPREAGUE VA  1242   45 51  300/  4/ 19 1024.9R
THOMAS POINT MD  1300   40 49  310/ 12/ 17 1026.2R
GOOSES REEF MD   1250   42     350/ 17/ 21 1025.7R
COVE POINT MD    1242   41     350/ 19/ 22 1025.8R
SOLOMONS ISLAND  1242   42 51  310/ 11/ 20 1025.1R
BISHOPS HEAD MD  1242   42 47  320/ 13/ 19 1025.4R
PINEY POINT MD   1242          340/ 20/ 23   N/A
POTOMAC MD       1250   43     330/ 16/ 21 1026.6R
CAMBRIDGE MD     1242   43 51              1025.6R
LEWISETTA VA     1242   43 52  340/ 14/ 21 1025.8R
RAPPAHANNOCK LGT 1242          320/ 22/ 25 1025.8R
YORK RVR RNG VA  1242   43     340/ 20/ 23 1026.0R
YORKTOWN VA      1242   44 55  320/ 19/ 24 1025.8R
DOMINION TERM VA 1242   46      10/  7/ 20 1026.1R
KIPTOPEKE VA     1242      52  340/ 20/ 25   N/A
CAPE HENRY VA    1242   44     330/ 18/ 21   N/A
WILLOUBY STN VA  1242   44     330/ 19/ 22 1025.9R
S CRANEY ISL VA  1242   45     340/ 12/ 17 1025.9R
CAPE HENRY BUOY  1230      49                N/A     4/ 4   2/15
64NM E OF VA BCH 1250   45 49  340/ 17/ 23 1024.5R   6/ 6
DUCK PIER NC     1242   47 51  330/ 15/ 19 1024.9R
44100 DUCK FRF   1245      50                N/A     5/ 7
44056 DUCK FRF   1230      49                N/A     5/ 6   2/14
OREGON INLET NC  1242   48 56  320/ 13/ 19 1025.4R
HATTERAS NC      1242   50 61  360/ 18/ 24 1025.2R
DIAMOND SHLS NC  1250   52 71  360/ 21/ 27 1025.5R   6/ 9   3/ 9
CAPE LOOKOUT NC  1200           10/ 13/ 15 1026.1R
$$



USA.gov is the U.S. government's official web portal to all federal, state and local government web resources and services.